SL-14 DEB

Satellite information

Favourite Embed

Satellite Type and Status

DEBRISIN ORBIT

Key statistics

Satellite SL-14 DEB at a glance.

Uptime

12494

Days in orbit

Revolutions

≈ 12.8

Per day

Orbit

LEO

Low Earth Orbit

Inclination

82.5

Latest

Satellite identification and parameters

Extended collection of information and parameters for SL-14 DEB.

Object identification

Identified? True

Debris? True

Object name: SL-14 DEB

International designator: 1991-056V

Object number (NORAD): 45283

Object ID (CCSDS): 45283

Country: COMMONWEALTH OF INDEPENDENT STATES (CIS)

Current information (Y/N): Y

RCS size: SMALL

Orbital parameters

Period: 112.63 minutes

Inclination: 82.5237 deg

SMA: 7725.571 km

Apoapsis: 1546.847 km

Periapsis: 1148.025 km

RAAN: 51.5448 deg

Eccentricy: 0.02581187

Argument of periapsis: 119.6546 deg

Mean anomaly: 243.0527 deg

Mean motion: 12.7851809 rev/day

Mean motion (dot): 0.00004407 rev/day2

B* drag term: 0.017154976 1/REarth

Two-line elements (TLE)

Creation date: Oct. 28, 2025, 7:11 p.m.

Reference frame: TEME

Reference center: EARTH

Epoch: Oct. 28, 2025, 1:09 p.m. UTC

TLE line 0: 0 SL-14 DEB

TLE line 1: 1 45283U 91056V 25301.54795882 .00004407 00000-0 17155-1 0 9997

TLE line 2: 2 45283 82.5237 51.5448 0258119 119.6546 243.0527 12.78518090264787

Live tracking on map

Real-time ground track for satellite SL-14 DEB.

In-orbit conjunctions

A list of the most updated potential collisions computed for object SL-14 DEB.

Target Orbit TCA Probability of collision Miss distance Type
DELTA 1 R/B SSO 2025-03-06 20:40:53 0.0003798126 217.0 (m) ROCKET BODY
NOAA 1 DEB * SSO 2024-09-27 16:52:48 0.0002485421 766.0 (m) DEBRIS

Associated space launch

Third generation meteorological satellite

SL-14 DEB was lifted into orbit during the mission ‘Tsiklon-3 | Meteor-3 5’, on board a Tsiklon-3 space rocket.

The launch took place on Aug. 15, 1991, 9:15 a.m. from 32/2.

For more information about the launch, click the button.

Launch to space Tsiklon-3 | Meteor-3 5
Tsiklon-3 | Meteor-3 5

Agency: N/A

Status: Launch Successful

Launch date: Aug. 15, 1991, 9:15 a.m. UTC

Rocket: Tsiklon-3

Launch pad: 32/2

Location: Plesetsk Cosmodrome, Russian Federation

...

Latest news about this satellite

There are no fresh news available about this satellite. Check back as we update our databases every day.


Newsletter sign-up

Weekly statistics, charts and insights to help you stay on top of the space industry.